Location: �quirre
(50.4736°N, 2.2351°E)
Time: 22:28:18
(UTC+00:00)

FALCON 9 DEB - Pass Details

Date: 07 August 2020
Orbit: 427 x 441 km, 53.0° (Epoch: 22 September)

Event Time Altitude Azimuth Distance (km) Brightness Sun altitude
Exits shadow 01:49:32 - 289° (WNW) 1,616 5.9 -18.8°
Reaches altitude 10° 01:49:40 10° 290° (WNW) 1,561 5.8 -18.8°
Maximum altitude 01:53:10 70° 14° (NNE) 472 3.4 -18.5°
Drops below altitude 10° 01:56:39 10° 99° (E) 1,551 6.2 -18.2°
Sets 01:58:46 0° 102° (ESE) 2,416 7.2 -18.0°
